Home > Weather > Ufa > Past weeks

Flag for Russia Past Weather in Ufa, Russia — Yesterday and Last 2 Weeks

Now
55 °F

Sunny.


Feels Like: 55 °F
Forecast: 59 / 83 °F
Wind: No wind

Location: Ufa

Current Time: Jul 27, 2016 at 6:57:24 AM

Latest Report: Jul 27, 2016 at 6:30 AM


Visibility: 10 mi

Pressure: 30.01 "Hg

Humidity: 88%

Dew Point: 52 °F

Location of UfaLocation

Past Weather in Ufa — Graph

°F

Ufa Temperature Yesterday

Maximum temperature yesterday: 79 °F (at 2:30 PM)
Minimum temperature yesterday: 57 °F (at 5:30 AM)
Average temperature yesterday: 69 °F

High & Low Weather Summary for the Past Weeks

 TemperatureHumidityPressure
High86 °F (Jul 17, 4:00 PM)100% (Jul 13, 12:00 AM)30.07 "Hg (Jul 13, 12:00 AM)
Low54 °F (Jul 27, 5:00 AM)28% (Jul 20, 5:30 PM)29.71 "Hg (Jul 14, 1:30 AM)
Average71 °F65%29.85 "Hg
* Reported Jul 12 5:00 AM — Jul 27 5:30 AM, Ufa, Weather by CustomWeather, © 2016

Note: Actual official high and low records may vary slightly from our data, if they occured in-between our weather recording intervals... More about our weather records

Advertising

Ufa Weather History for the Previous 24 Hours

Scroll right to see more
 ConditionsComfort  
Time TempWeatherWind HumidityBarometerVisibility
5:30 AM
Wed, Jul 27
57 °FPassing clouds.3 mph82%30.01 "HgN/A
5:00 AM54 °FClear.1 mph88%29.98 "Hg10 mi
4:30 AM55 °FPassing clouds.3 mph82%29.98 "HgN/A
4:00 AM57 °FClear.1 mph82%30.01 "Hg10 mi
3:30 AM55 °FPassing clouds.3 mph82%30.01 "HgN/A
3:00 AM57 °FClear.1 mph82%29.98 "Hg10 mi
2:30 AM59 °FPassing clouds.3 mph82%30.01 "HgN/A
2:00 AM61 °FPassing clouds.1 mph72%29.98 "HgN/A
1:30 AM61 °FPassing clouds.1 mph77%30.01 "HgN/A
1:00 AM59 °FPassing clouds.1 mph77%29.98 "HgN/A
12:30 AM61 °FClear.1 mph77%29.98 "Hg10 mi
12:00 AM61 °FClear.1 mph72%29.98 "Hg10 mi
11:30 PM
Tue, Jul 26
63 °FClear.1 mph73%29.98 "Hg10 mi
11:00 PM70 °FClear.1 mph53%29.98 "Hg10 mi
10:30 PM70 °FClear.1 mph53%29.98 "Hg10 mi
10:00 PM72 °FPassing clouds.3 mph50%29.98 "HgN/A
9:30 PM73 °FSunny.1 mph47%29.98 "Hg10 mi
9:00 PM75 °FPassing clouds.3 mph44%29.95 "HgN/A
8:30 PM75 °FPassing clouds.3 mph44%29.95 "HgN/A
8:00 PM77 °FPassing clouds.3 mph42%29.95 "HgN/A
7:30 PM77 °FPassing clouds.8 mph39%29.95 "HgN/A
7:00 PM79 °FPassing clouds.10 mph34%29.95 "HgN/A
6:30 PM79 °FPassing clouds.10 mph37%29.95 "HgN/A
6:00 PM79 °FPassing clouds.10 mph37%29.95 "HgN/A
5:30 PM79 °FPassing clouds.8 mph34%29.95 "HgN/A
5:00 PM79 °FPassing clouds.10 mph34%29.95 "HgN/A
4:30 PM79 °FPassing clouds.8 mph37%29.98 "HgN/A
4:00 PM79 °FSunny.13 mph34%29.98 "Hg10 mi
3:30 PM79 °FPassing clouds.13 mph37%29.98 "HgN/A
3:00 PM79 °FPassing clouds.8 mph37%29.98 "HgN/A
2:30 PM79 °FSunny.10 mph37%29.98 "Hg10 mi
2:00 PM77 °FHaze.10 mph39%29.98 "Hg2 mi
1:30 PM75 °FHaze.10 mph41%30.01 "Hg2 mi
1:00 PM77 °FHaze.10 mph39%30.01 "Hg2 mi
12:30 PM73 °FHaze.8 mph41%30.01 "Hg2 mi
12:00 PM73 °FHaze.10 mph41%30.01 "Hg2 mi
11:30 AM73 °FHaze.10 mph44%30.01 "Hg2 mi
11:00 AM72 °FHaze.8 mph50%30.01 "Hg2 mi
10:30 AM70 °FHaze.8 mph57%30.01 "Hg2 mi
10:00 AM68 °FHaze.6 mph64%30.01 "Hg2 mi
9:30 AM66 °FHaze.3 mph64%30.01 "Hg2 mi
9:00 AM64 °FHaze.3 mph68%30.01 "Hg2 mi
8:30 AM61 °FHaze.6 mph77%30.01 "Hg2 mi
8:00 AM59 °FHaze.6 mph77%30.01 "Hg2 mi
7:30 AM59 °FHaze.3 mph82%30.01 "Hg1 mi
7:00 AM57 °FScattered clouds.3 mph88%29.98 "Hg1 mi
6:30 AM57 °FPartly sunny.3 mph88%29.98 "Hg1 mi
6:00 AM57 °FPassing clouds.3 mph88%29.98 "Hg1 mi
Weather by CustomWeather, © 2016

See weather overviewHow to use our weather pages